CYBGCYBQ

Guest
Details From CYBG - BAGOTVILLE
To CYBQ - Tadoule Lake
Flight Number -
Tags decoded
Created
Modified
Stats Distance 1,178 nm / 2,181 km
Max Altitude 0 ft / 0 m
Waypoints 3
Social Downloads 0
Likes 0
Share VATSIM

Download

Looking for another format? Having issues loading an existing format? Contact us
Advertisement - Login to hide

Notes

Requested: CYBG VBS CYBQ

Route

CYBG VBS CYBQ

ID Type Via Altitude Latitude Longitude Leg Dist Tot Dist Heading (true) Name
O CYBG APT - 0 ft / 0 m 48.33118˚ -70.99417˚ - 0 nm - BAGOTVILLE
VBS VOR - 0 ft / 0 m 48.01722˚ -71.26667˚ 21 nm 21 nm 210° / 210° SAGUENAY VOR-DME
O CYBQ APT - 0 ft / 0 m 58.70627˚ -98.51285˚ 1156 nm 1177 nm 314° / 292° Tadoule Lake

Altitude Profile

Advertisement - Login to hide

Weather


0- 5 10 15 20 25 30 35+ Temperature / ° C

Clouds and Precipitation
Forecast for 2017-12-17 00:00 UTC. Updated 2 hours ago

Ground ~20,000 ft ~40,000 ft Winds

CYBG

Details ICAO CYBG (YBG)
Name BAGOTVILLE
Region Canada
Timezone America/Montreal (UTC-5.0)
Stats Elevation 522 ft / 159 m (AMSL)
Location 48.331181° -70.994165°
Runways 2
Magnetic Variation 16.556° W

METAR

CYBG 162100Z 28010KT 25SM FEW030 FEW240 M18/M21 A2996 RMK SC1CI1 SLP164

Decode

TAF

TAF CYBG 161730Z 1618/1718 27012KT P6SM FEW140 FM170400 27010KT P6SM SCT020 BKN030 TEMPO 1704/1718 BKN020 OVC030 RMK NXT FCST BY 170000Z

Decode

Departure Runways

ID Width Length Bearing (true) Bearing (mag) Surface Threshold Offset Overrun Length
11 150 ft / 46 m 9,907 ft / 3,020 m 90.57° 107.13° Concrete 0 ft / 0 m 0 ft / 0 m
18 150 ft / 46 m 5,923 ft / 1,805 m 163.46° 180.02° Asphalt 0 ft / 0 m 0 ft / 0 m
29 150 ft / 46 m 9,907 ft / 3,020 m 270.60° 287.16° Concrete 0 ft / 0 m 0 ft / 0 m
36 150 ft / 46 m 5,923 ft / 1,805 m 343.46° 0.02° Asphalt 0 ft / 0 m 0 ft / 0 m

CYBQ

Details ICAO CYBQ (XTL)
Name Tadoule Lake
Region Canada
Timezone America/Winnipeg (UTC-6.0)
Stats Elevation 902 ft / 275 m (AMSL)
Location 58.706269° -98.512850°
Runways 1
Magnetic Variation 2.989° E

METAR

CYBQ 162100Z AUTO VRB02KT 9SM -SN OVC026 M22/M25 A2976 RMK SLP120

Decode

TAF

Not found

Destination Runways

ID Width Length Bearing (true) Bearing (mag) Surface Threshold Offset Overrun Length
07 164 ft / 50 m 3,971 ft / 1,210 m 72.58° 69.59° Dirt 0 ft / 0 m 0 ft / 0 m
25 164 ft / 50 m 3,971 ft / 1,210 m 252.60° 249.61° Dirt 0 ft / 0 m 0 ft / 0 m

Popular Alternatives